Weather History for Poteau, OK

Change the Weather History Date:

Tuesday, December 25, 2012

  Actual Average (KFSM) Record (KFSM)
Temperature  
Mean Temperature 37 °F 40 °F  
Max Temperature 42 °F 50 °F 75 °F (1889)
Min Temperature 32 °F 30 °F -1 °F (1983)
Degree Days  
Heating Degree Days 28 25  
Month to date heating degree days 579  
Since 1 July heating degree days 1144  
Moisture  
Dew Point 33 °F    
Average Humidity 90    
Maximum Humidity 100    
Minimum Humidity 66    
Precipitation  
Precipitation 0.49 in 0.09 in 1.98 in (1888)
Month to date precipitation 2.75  
Year to date precipitation 44.92  
Sea Level Pressure  
Sea Level Pressure 29.91 in    
Wind  
Wind Speed 7 mph (North)    
Max Wind Speed 16 mph    
Max Gust Speed 25 mph    
Visibility 5 miles    
Events Rain , Snow , Thunderstorm    
T = Trace of Precipitation, MM = Missing Value Source: NWS Daily Summary

Daily Weather History Graph

Daily Weather History Graph

Search for Another Location

Airport:

Trip Planner

Search our weather history database for the weather conditions in past years. The results will help you decide how hot, cold, wet, or windy it might be!

Date:

Astronomy

Dec. 25, 2012 Rise Set
Actual Time 7:24 AM CST 5:13 PM CST
Civil Twilight 6:56 AM CST 5:41 PM CST
Nautical Twilight 6:24 AM CST 6:13 PM CST
Astronomical Twilight 5:53 AM CST 6:43 PM CST
Moon 3:20 PM CST (12/25) 4:59 AM CST (12/25)
Length of Visible Light 10h 44m
Length of Day
9h 48m
Waxing Gibbous, 94% of the Moon is Illuminated
Dec 25
Waxing Gibbous
Dec 28
Full
Jan 4
Last Quarter
Jan 11
New
Jan 18
First Quarter

Hourly Weather History & Observations

Time (CST) Temp. Windchill Dew Point Humidity Pressure Visibility Wind Dir Wind Speed Gust Speed Precip Events Conditions
12:15 AM 39.2 °F - 33.8 °F 81% 29.91 in 7.0 mi Calm Calm - N/A   Overcast
12:35 AM 41.0 °F - 33.8 °F 76% 29.93 in 7.0 mi Calm Calm - N/A   Overcast
12:55 AM 41.0 °F 37.1 °F 33.8 °F 76% 29.92 in 7.0 mi North 5.8 mph - N/A   Overcast
1:15 AM 41.0 °F 37.1 °F 33.8 °F 76% 29.92 in 7.0 mi North 5.8 mph - N/A   Overcast
1:35 AM 41.0 °F 37.1 °F 33.8 °F 76% 29.91 in 7.0 mi North 5.8 mph - N/A   Overcast
1:55 AM 41.0 °F 36.4 °F 33.8 °F 76% 29.91 in 10.0 mi North 6.9 mph - N/A   Mostly Cloudy
2:15 AM 41.0 °F 37.1 °F 33.8 °F 76% 29.91 in 10.0 mi North 5.8 mph - N/A   Clear
2:35 AM 41.0 °F 39.0 °F 32.0 °F 70% 29.91 in 10.0 mi NNE 3.5 mph - N/A   Scattered Clouds
2:55 AM 41.0 °F 38.0 °F 33.8 °F 76% 29.91 in 10.0 mi North 4.6 mph - N/A   Mostly Cloudy
3:15 AM 42.8 °F 40.1 °F 32.0 °F 66% 29.92 in 10.0 mi North 4.6 mph - N/A   Mostly Cloudy
3:35 AM 42.8 °F 39.3 °F 32.0 °F 66% 29.90 in 10.0 mi North 5.8 mph - N/A   Mostly Cloudy
3:55 AM 42.8 °F 38.6 °F 32.0 °F 66% 29.88 in 10.0 mi NNE 6.9 mph - N/A   Mostly Cloudy
4:15 AM 41.0 °F 36.4 °F 32.0 °F 70% 29.88 in 10.0 mi NNE 6.9 mph - N/A Thunderstorm Mostly Cloudy
4:35 AM 41.0 °F 36.4 °F 32.0 °F 70% 29.88 in 10.0 mi North 6.9 mph - N/A Thunderstorm Mostly Cloudy
4:55 AM 41.0 °F 37.1 °F 32.0 °F 70% 29.90 in 10.0 mi NNE 5.8 mph - N/A Rain Light Rain
5:15 AM 41.0 °F 38.0 °F 33.8 °F 76% 29.93 in 5.0 mi NNE 4.6 mph - 0.01 in Rain Rain
5:35 AM 37.4 °F 34.9 °F 33.8 °F 87% 29.95 in 2.5 mi NE 3.5 mph - 0.08 in Snow Light Snow
5:55 AM 37.4 °F - 35.6 °F 93% 29.93 in 2.0 mi Calm Calm - 0.16 in Snow Light Snow
6:15 AM 37.4 °F - 37.4 °F 100% 29.93 in 2.0 mi Calm Calm - 0.09 in Snow Light Snow
6:35 AM 37.4 °F 32.8 °F 37.4 °F 100% 29.95 in 2.0 mi NE 5.8 mph - 0.17 in Snow Light Snow
6:55 AM 37.4 °F 32.8 °F 35.6 °F 93% 29.93 in 1.8 mi NE 5.8 mph - 0.26 in Snow Light Snow
7:15 AM 37.4 °F 31.4 °F 35.6 °F 93% 29.91 in 4.0 mi NE 8.1 mph - 0.02 in Rain Light Rain
7:35 AM 35.6 °F 29.9 °F 35.6 °F 100% 29.90 in 5.0 mi NNE 6.9 mph - 0.03 in Rain Rain
7:55 AM 35.6 °F 32.8 °F 35.6 °F 100% 29.90 in 4.0 mi North 3.5 mph - 0.03 in Rain Light Rain
8:15 AM 37.4 °F - 35.6 °F 93% 29.90 in 5.0 mi Calm Calm - N/A   Overcast
8:35 AM 37.4 °F 32.8 °F 35.6 °F 93% 29.88 in 5.0 mi East 5.8 mph - N/A   Overcast
8:55 AM 37.4 °F 31.4 °F 35.6 °F 93% 29.87 in 5.0 mi North 8.1 mph - N/A   Mostly Cloudy
9:15 AM 37.4 °F 31.4 °F 33.8 °F 87% 29.88 in 5.0 mi NNE 8.1 mph - N/A   Mostly Cloudy
9:35 AM 35.6 °F 29.2 °F 33.8 °F 93% 29.88 in 5.0 mi NNE 8.1 mph - N/A   Mostly Cloudy
9:55 AM 35.6 °F 28.0 °F 33.8 °F 93% 29.87 in 5.0 mi NNE 10.4 mph - N/A Rain Light Rain
10:15 AM 35.6 °F 29.2 °F 33.8 °F 93% 29.87 in 5.0 mi NE 8.1 mph 16.1 mph N/A   Overcast
10:35 AM 35.6 °F 28.0 °F 33.8 °F 93% 29.85 in 4.0 mi NE 10.4 mph - N/A Rain Light Rain
10:55 AM 35.6 °F 27.5 °F 33.8 °F 93% 29.83 in 4.0 mi NE 11.5 mph 18.4 mph N/A Rain Light Rain
11:15 AM 35.6 °F 27.5 °F 33.8 °F 93% 29.83 in 4.0 mi NNE 11.5 mph - N/A   Overcast
11:35 AM 33.8 °F 25.8 °F 32.0 °F 93% 29.82 in 4.0 mi NE 10.4 mph 16.1 mph N/A   Overcast
11:55 AM 33.8 °F 25.8 °F 32.0 °F 93% 29.84 in 3.0 mi NNE 10.4 mph 16.1 mph N/A   Overcast
12:15 PM 33.8 °F 24.3 °F 32.0 °F 93% 29.84 in 2.5 mi NNE 13.8 mph 20.7 mph 0.02 in   Overcast
12:35 PM 33.8 °F 24.3 °F 32.0 °F 93% 29.84 in 1.8 mi NNE 13.8 mph 20.7 mph 0.04 in Snow Light Snow
12:55 PM 33.8 °F 25.8 °F 32.0 °F 93% 29.85 in 1.5 mi NNE 10.4 mph 18.4 mph 0.04 in Snow , Thunderstorm Light Thunderstorms and Snow
1:15 PM 33.8 °F 27.0 °F 32.0 °F 93% 29.85 in 1.5 mi NNE 8.1 mph - N/A Snow Light Snow
1:35 PM 32.0 °F 25.6 °F 32.0 °F 100% 29.85 in 1.0 mi NNE 6.9 mph - N/A Snow Light Snow
1:55 PM 32.0 °F 25.6 °F 32.0 °F 100% 29.86 in 0.5 mi NNE 6.9 mph - N/A Snow Snow
2:15 PM 32.0 °F 27.5 °F 32.0 °F 100% 29.87 in 0.2 mi NNE 4.6 mph - N/A Snow Snow
2:35 PM 32.0 °F 27.5 °F 32.0 °F 100% 29.88 in 0.2 mi North 4.6 mph - N/A Snow Heavy Snow
2:55 PM 32.0 °F 28.7 °F 32.0 °F 100% 29.88 in 0.2 mi NNE 3.5 mph - N/A Snow Snow
3:15 PM 32.0 °F 24.2 °F 32.0 °F 100% 29.88 in 0.2 mi NNW 9.2 mph - N/A Snow Snow
3:35 PM 32.0 °F 22.1 °F 32.0 °F 100% 29.88 in 0.5 mi North 13.8 mph - N/A Snow Light Snow
3:55 PM 32.0 °F 22.1 °F 32.0 °F 100% 29.89 in 0.5 mi North 13.8 mph 19.6 mph N/A Snow Light Snow
4:15 PM 32.0 °F 22.1 °F 32.0 °F 100% 29.89 in 0.5 mi NNW 13.8 mph - N/A Snow Snow
4:35 PM 32.0 °F 21.2 °F 32.0 °F 100% 29.89 in 0.5 mi North 16.1 mph 20.7 mph N/A Snow Snow
4:55 PM 32.0 °F 21.6 °F 32.0 °F 100% 29.90 in - North 15.0 mph 21.9 mph N/A   Unknown
5:15 PM 32.0 °F 21.6 °F 32.0 °F 100% 29.90 in - North 15.0 mph 19.6 mph N/A   Overcast
5:35 PM 32.0 °F 22.5 °F 32.0 °F 100% 29.90 in - NNW 12.7 mph 20.7 mph N/A   Overcast
5:55 PM 32.0 °F 23.0 °F 32.0 °F 100% 29.90 in - NNW 11.5 mph 25.3 mph N/A   Overcast
6:35 PM 32.0 °F 21.2 °F 32.0 °F 100% 29.92 in - North 16.1 mph 24.2 mph N/A   Unknown
6:55 PM 32.0 °F 21.6 °F 32.0 °F 100% 29.92 in - North 15.0 mph 23.0 mph N/A   Overcast
7:15 PM 32.0 °F 21.6 °F 32.0 °F 100% 29.92 in - North 15.0 mph 24.2 mph N/A   Overcast
7:35 PM 32.0 °F 22.1 °F 30.2 °F 93% 29.93 in - North 13.8 mph 21.9 mph N/A   Overcast
7:55 PM 32.0 °F 21.6 °F 30.2 °F 93% 29.94 in - North 15.0 mph 20.7 mph N/A   Overcast
8:15 PM 32.0 °F 22.1 °F 30.2 °F 93% 29.95 in 2.5 mi North 13.8 mph 17.3 mph N/A Snow Light Snow
8:35 PM 32.0 °F 21.2 °F 30.2 °F 93% 29.96 in - NNW 16.1 mph 23.0 mph N/A   Overcast
8:55 PM 32.0 °F 23.0 °F 30.2 °F 93% 29.97 in - NNW 11.5 mph 20.7 mph N/A   Overcast
9:15 PM 32.0 °F 23.0 °F 32.0 °F 100% 29.98 in - NNW 11.5 mph 17.3 mph N/A   Overcast
10:15 PM 32.0 °F 24.2 °F 30.2 °F 93% 30.00 in 4.0 mi North 9.2 mph - N/A Snow Light Snow
10:35 PM 32.0 °F 24.2 °F 30.2 °F 93% 30.00 in 4.0 mi NNW 9.2 mph - N/A Snow Light Snow
10:55 PM 32.0 °F 24.2 °F 28.4 °F 87% 30.01 in 10.0 mi NNW 9.2 mph 18.4 mph N/A Snow Light Snow
11:15 PM 32.0 °F 22.1 °F 28.4 °F 87% 30.02 in 10.0 mi NNW 13.8 mph 18.4 mph N/A   Overcast
11:35 PM 32.0 °F 23.6 °F 28.4 °F 87% 30.03 in 10.0 mi NNW 10.4 mph - N/A   Overcast
11:55 PM 32.0 °F 23.0 °F 26.6 °F 80% 30.05 in 10.0 mi NW 11.5 mph - N/A   Overcast